TCA7378 SVBC-SVCS

Flight info

Callsign TCA7378
Flight time 0h 33m
Altitude 22000
Route ARVEX1 GEMAP W14 USOTI W27 TUY
Aircraft C25B/M-SDE2E3FGHRWXY/LB1

Departure

Time 2026-04-13 20:41
Airport General José Antonio Anzoategui International Airport (SVBC)

Arrival

Time 2026-04-13 21:14
Airport Caracas Óscar Machado Zuloaga International Airport (SVCS)
Time Latitude Longitude Altitude Speed Heading
2026-04-13 20:32 10.10784 -64.68681 34 ft 0 kts 347°
2026-04-13 20:38 10.10791 -64.68686 34 ft 2 kts 299°
2026-04-13 20:38 10.10774 -64.68731 34 ft 11 kts 244°
2026-04-13 20:39 10.10739 -64.68863 32 ft 18 kts 258°
2026-04-13 20:39 10.10644 -64.68938 32 ft 19 kts 192°
2026-04-13 20:39 10.10505 -64.68970 31 ft 22 kts 193°
2026-04-13 20:39 10.10349 -64.69005 32 ft 23 kts 191°
2026-04-13 20:40 10.10245 -64.69018 33 ft 23 kts 186°
2026-04-13 20:40 10.10124 -64.69046 33 ft 11 kts 283°
2026-04-13 20:40 10.10162 -64.69046 33 ft 6 kts 11°
2026-04-13 20:40 10.10566 -64.68954 32 ft 118 kts 13°
2026-04-13 20:41 10.11959 -64.68644 1045 ft 178 kts 15°
2026-04-13 20:41 10.13263 -64.68321 2237 ft 206 kts 15°
2026-04-13 20:41 10.14225 -64.68098 2747 ft 222 kts 15°
2026-04-13 20:41 10.15774 -64.67745 3798 ft 231 kts 14°
2026-04-13 20:42 10.17359 -64.67384 4953 ft 236 kts 15°
2026-04-13 20:42 10.18991 -64.67063 6000 ft 244 kts
2026-04-13 20:42 10.20591 -64.67641 7032 ft 254 kts 321°
2026-04-13 20:42 10.21573 -64.69757 8430 ft 261 kts 271°
2026-04-13 20:43 10.21220 -64.71560 9453 ft 263 kts 251°
2026-04-13 20:43 10.20723 -64.73360 10438 ft 266 kts 256°
2026-04-13 20:43 10.20483 -64.74580 11133 ft 266 kts 259°
2026-04-13 20:43 10.20185 -64.76447 12096 ft 269 kts 260°
2026-04-13 20:44 10.19888 -64.78327 13070 ft 271 kts 259°
2026-04-13 20:44 10.19559 -64.80217 14042 ft 272 kts 259°
2026-04-13 20:44 10.19236 -64.82105 14985 ft 272 kts 259°
2026-04-13 20:44 10.18911 -64.84007 15892 ft 274 kts 259°
2026-04-13 20:45 10.18582 -64.85915 16773 ft 276 kts 259°
2026-04-13 20:45 10.18259 -64.87840 17633 ft 278 kts 259°
2026-04-13 20:45 10.17928 -64.89751 18463 ft 279 kts 259°
2026-04-13 20:46 10.17257 -64.93671 20041 ft 284 kts 259°
2026-04-13 20:46 10.16918 -64.95659 20780 ft 288 kts 259°
2026-04-13 20:46 10.16577 -64.97666 21525 ft 290 kts 259°
2026-04-13 20:46 10.16222 -64.99714 21886 ft 305 kts 259°
2026-04-13 20:47 10.15847 -65.01913 21897 ft 327 kts 259°
2026-04-13 20:47 10.15444 -65.04251 21900 ft 345 kts 259°
2026-04-13 20:47 10.15031 -65.06668 21902 ft 359 kts 259°
2026-04-13 20:47 10.14595 -65.09204 21902 ft 371 kts 259°
2026-04-13 20:48 10.14161 -65.11770 21901 ft 365 kts 260°
2026-04-13 20:48 10.13723 -65.14291 21900 ft 359 kts 259°
2026-04-13 20:48 10.13296 -65.16766 21897 ft 354 kts 259°
2026-04-13 20:48 10.12876 -65.19211 21898 ft 350 kts 259°
2026-04-13 20:49 10.12463 -65.21632 21897 ft 347 kts 260°
2026-04-13 20:49 10.12046 -65.24040 21898 ft 345 kts 259°
2026-04-13 20:49 10.11644 -65.26398 21897 ft 343 kts 259°
2026-04-13 20:49 10.11230 -65.28774 21894 ft 341 kts 259°
2026-04-13 20:50 10.10823 -65.31144 21892 ft 341 kts 259°
2026-04-13 20:50 10.10414 -65.33505 21891 ft 340 kts 259°
2026-04-13 20:50 10.10012 -65.35863 21890 ft 339 kts 259°
2026-04-13 20:50 10.09600 -65.38215 21888 ft 338 kts 259°
2026-04-13 20:51 10.09199 -65.40559 21887 ft 338 kts 259°
2026-04-13 20:51 10.08795 -65.42903 21884 ft 337 kts 259°
2026-04-13 20:51 10.08394 -65.45213 21884 ft 337 kts 259°
2026-04-13 20:51 10.08052 -65.47559 21877 ft 336 kts 265°
2026-04-13 20:52 10.07947 -65.49922 21881 ft 335 kts 265°
2026-04-13 20:52 10.07743 -65.52280 21882 ft 335 kts 263°
2026-04-13 20:52 10.07551 -65.54636 21881 ft 336 kts 265°
2026-04-13 20:52 10.07390 -65.57012 21885 ft 339 kts 265°
2026-04-13 20:53 10.07216 -65.59411 21886 ft 342 kts 265°
2026-04-13 20:53 10.07046 -65.61798 21890 ft 345 kts 265°
2026-04-13 20:53 10.06864 -65.64231 21890 ft 347 kts 264°
2026-04-13 20:53 10.06687 -65.66677 21896 ft 348 kts 265°
2026-04-13 20:54 10.06507 -65.69132 21897 ft 350 kts 265°
2026-04-13 20:54 10.06329 -65.71596 21897 ft 351 kts 265°
2026-04-13 20:54 10.06147 -65.74061 21895 ft 351 kts 264°
2026-04-13 20:54 10.05967 -65.76534 21901 ft 352 kts 265°
2026-04-13 20:55 10.05783 -65.79013 21897 ft 353 kts 265°
2026-04-13 20:55 10.05604 -65.81498 21897 ft 353 kts 264°
2026-04-13 20:55 10.05422 -65.83950 21898 ft 353 kts 265°
2026-04-13 20:55 10.05240 -65.86434 21895 ft 353 kts 264°
2026-04-13 20:56 10.05055 -65.88919 21899 ft 353 kts 264°
2026-04-13 20:56 10.04875 -65.91408 21893 ft 353 kts 264°
2026-04-13 20:56 10.04689 -65.93894 21900 ft 353 kts 265°
2026-04-13 20:56 10.04515 -65.96372 21900 ft 352 kts 264°
2026-04-13 20:57 10.04315 -65.98853 21900 ft 353 kts 264°
2026-04-13 20:57 10.04141 -66.01333 21901 ft 353 kts 265°
2026-04-13 20:57 10.03958 -66.03811 21903 ft 352 kts 264°
2026-04-13 20:57 10.03776 -66.06257 21902 ft 353 kts 264°
2026-04-13 20:58 10.03594 -66.08741 21901 ft 353 kts 265°
2026-04-13 20:58 10.03441 -66.11234 21904 ft 354 kts 265°
2026-04-13 20:58 10.03286 -66.13721 21905 ft 354 kts 265°
2026-04-13 20:58 10.03119 -66.16213 21903 ft 354 kts 265°
2026-04-13 20:59 10.02948 -66.18698 21892 ft 353 kts 265°
2026-04-13 20:59 10.02801 -66.21174 21898 ft 352 kts 265°
2026-04-13 20:59 10.02624 -66.23644 21904 ft 351 kts 265°
2026-04-13 20:59 10.02615 -66.26088 21889 ft 353 kts 274°
2026-04-13 21:00 10.03021 -66.28548 21895 ft 353 kts 281°
2026-04-13 21:00 10.03568 -66.30975 21897 ft 353 kts 280°
2026-04-13 21:00 10.04088 -66.33406 21894 ft 353 kts 281°
2026-04-13 21:00 10.04634 -66.35835 21897 ft 354 kts 281°
2026-04-13 21:01 10.05159 -66.38268 21905 ft 351 kts 279°
2026-04-13 21:01 10.05693 -66.40689 21914 ft 353 kts 281°
2026-04-13 21:01 10.06242 -66.43115 21916 ft 353 kts 280°
2026-04-13 21:01 10.06758 -66.45503 21689 ft 346 kts 280°
2026-04-13 21:02 10.07264 -66.47858 21055 ft 337 kts 280°
2026-04-13 21:02 10.07774 -66.50153 20425 ft 330 kts 280°
2026-04-13 21:02 10.08271 -66.52403 19814 ft 324 kts 280°
2026-04-13 21:02 10.08751 -66.54614 19216 ft 318 kts 280°
2026-04-13 21:03 10.09229 -66.56787 18630 ft 314 kts 281°
2026-04-13 21:03 10.09699 -66.58935 18038 ft 309 kts 281°
2026-04-13 21:03 10.10150 -66.61004 17474 ft 299 kts 281°
2026-04-13 21:03 10.10593 -66.63022 16923 ft 289 kts 281°
2026-04-13 21:04 10.11025 -66.64989 16388 ft 282 kts 281°
2026-04-13 21:04 10.11443 -66.66904 15866 ft 275 kts 281°
2026-04-13 21:04 10.11851 -66.68780 15355 ft 270 kts 281°
2026-04-13 21:04 10.12257 -66.70617 14848 ft 264 kts 281°
2026-04-13 21:05 10.12647 -66.72426 14360 ft 260 kts 281°
2026-04-13 21:05 10.13038 -66.74204 13877 ft 257 kts 282°
2026-04-13 21:05 10.13423 -66.75967 13396 ft 254 kts 282°
2026-04-13 21:05 10.13794 -66.77678 12927 ft 251 kts 282°
2026-04-13 21:06 10.14173 -66.79395 12459 ft 248 kts 282°
2026-04-13 21:06 10.14543 -66.81098 12001 ft 246 kts 282°
2026-04-13 21:06 10.14910 -66.82769 11617 ft 240 kts 282°
2026-04-13 21:06 10.15260 -66.84390 11183 ft 228 kts 282°
2026-04-13 21:07 10.15603 -66.85950 10742 ft 226 kts 282°
2026-04-13 21:07 10.15938 -66.87492 10307 ft 221 kts 282°
2026-04-13 21:07 10.16269 -66.89005 9899 ft 218 kts 282°
2026-04-13 21:07 10.16587 -66.90476 9499 ft 215 kts 282°
2026-04-13 21:08 10.16911 -66.91956 9101 ft 214 kts 281°
2026-04-13 21:08 10.17232 -66.93428 8715 ft 213 kts 282°
2026-04-13 21:08 10.17554 -66.94893 8332 ft 212 kts 283°
2026-04-13 21:08 10.18196 -66.96215 7935 ft 212 kts 308°
2026-04-13 21:09 10.19247 -66.97245 7547 ft 210 kts 327°
2026-04-13 21:09 10.20577 -66.97821 7175 ft 208 kts 346°
2026-04-13 21:09 10.21995 -66.98051 6803 ft 206 kts 353°
2026-04-13 21:09 10.23408 -66.98185 6417 ft 202 kts
2026-04-13 21:10 10.24719 -66.97803 6072 ft 198 kts 24°
2026-04-13 21:10 10.25838 -66.97030 5710 ft 194 kts 46°
2026-04-13 21:10 10.26637 -66.95935 5355 ft 193 kts 63°
2026-04-13 21:10 10.27010 -66.94688 5014 ft 176 kts 81°
2026-04-13 21:11 10.27184 -66.93518 4731 ft 155 kts 79°
2026-04-13 21:11 10.27363 -66.92487 4448 ft 142 kts 79°
2026-04-13 21:11 10.27509 -66.91535 4217 ft 132 kts 80°
2026-04-13 21:11 10.27653 -66.90647 4006 ft 127 kts 79°
2026-04-13 21:12 10.27787 -66.89787 3809 ft 121 kts 79°
2026-04-13 21:12 10.27925 -66.88957 3617 ft 117 kts 79°
2026-04-13 21:12 10.28051 -66.88144 3435 ft 116 kts 78°
2026-04-13 21:12 10.28177 -66.87334 3250 ft 117 kts 79°
2026-04-13 21:13 10.28310 -66.86523 3062 ft 116 kts 78°
2026-04-13 21:13 10.28445 -66.85710 2889 ft 117 kts 73°
2026-04-13 21:13 10.28682 -66.84928 2695 ft 116 kts 75°
2026-04-13 21:13 10.28791 -66.84135 2508 ft 116 kts 85°
2026-04-13 21:14 10.28803 -66.83323 2381 ft 117 kts 91°
2026-04-13 21:14 10.28750 -66.82509 2204 ft 114 kts 94°
2026-04-13 21:14 10.28702 -66.81773 2167 ft 83 kts 94°
2026-04-13 21:14 10.28680 -66.81443 2164 ft 18 kts 92°
2026-04-13 21:15 10.28733 -66.81422 2165 ft 10 kts 287°
2026-04-13 21:15 10.28739 -66.81500 2167 ft 12 kts 274°
2026-04-13 21:15 10.28745 -66.81590 2164 ft 14 kts 274°
2026-04-13 21:15 10.28751 -66.81689 2163 ft 15 kts 274°
2026-04-13 21:16 10.28758 -66.81800 2166 ft 16 kts 274°
2026-04-13 21:16 10.28766 -66.81905 2164 ft 12 kts 287°
2026-04-13 21:16 10.28820 -66.81940 2163 ft 10 kts 278°
2026-04-13 21:16 10.28826 -66.82018 2166 ft 12 kts 275°
2026-04-13 21:17 10.28821 -66.82069 2163 ft 4 kts 194°
2026-04-13 21:17 10.28803 -66.82071 2164 ft 0 kts 185°